EA7RX-13 Weather Reports


time (UTC)temp
F
wind
direction
speed
knots
gust
knots
rain 1hr
in
rain 24hr
in
rain mn
in
humidity
%
barometer
mb
20260508091351 70 0.0 0.0 0.00 0.00 0.00 67 1010.2
20260508090351 70 0.0 0.0 0.00 0.00 0.00 66 1010.0
20260508085351 71 0.0 0.0 0.00 0.00 0.00 69 1010.0
20260508084351 69 0.0 0.0 0.00 0.00 0.00 69 1010.0
20260508083351 69 0.0 0.0 0.00 0.00 0.00 75 1010.0
20260508082351 67 0.0 0.0 0.00 0.00 0.00 78 1010.2
20260508081351 65 0.0 0.0 0.00 0.00 0.00 92 1010.4
20260508080351 65 0.0 0.0 0.00 0.00 0.00 10 1010.4
20260508075351 64 0.0 0.0 0.00 0.00 0.00 10 1010.5
20260508074351 63 0.0 0.0 0.00 0.00 0.00 10 1010.8
20260508073351 63 0.0 0.0 0.00 0.00 0.00 10 1010.9
20260508072351 62 0.0 0.0 0.00 0.00 0.00 10 1011.1
20260508071351 60 0.0 0.0 0.00 0.00 0.00 10 1011.2
20260508070351 60 0.0 0.0 0.00 0.00 0.00 10 1011.3
20260508065351 59 0.0 0.0 0.00 0.00 0.00 10 1011.1
20260508064351 60 0.0 0.0 0.00 0.00 0.00 10 1010.8
20260508063351 60 0.0 0.0 0.00 0.00 0.00 10 1010.7
20260508062351 60 0.0 0.0 0.00 0.00 0.00 10 1010.4
20260508061351 59 0.0 0.0 0.00 0.00 0.00 10 1010.5
20260508060351 59 0.0 0.0 0.00 0.00 0.00 10 1010.9
20260508055351 58 0.0 0.0 0.00 0.00 0.00 10 1010.9
20260508054352 58 0.0 0.0 0.00 0.00 0.00 10 1010.9
20260508053351 58 0.0 0.0 0.00 0.00 0.00 10 1010.9
20260508052351 58 0.0 0.0 0.00 0.00 0.00 10 1011.0
20260508051351 58 0.0 0.0 0.00 0.00 0.00 10 1010.9
20260508050351 58 0.0 0.0 0.00 0.00 0.00 10 1010.7
20260508045351 58 0.0 0.0 0.00 0.00 0.00 10 1010.7
20260508044351 58 0.0 0.0 0.00 0.00 0.00 10 1010.6
20260508043351 58 0.0 0.0 0.00 0.00 0.00 10 1010.9
20260508042351 58 0.0 0.0 0.00 0.00 0.00 10 1010.6
20260508041351 58 0.0 0.0 0.00 0.00 0.00 10 1010.6
20260508040351 58 0.0 0.0 0.00 0.00 0.00 10 1010.7
20260508035351 58 0.0 0.0 0.00 0.00 0.00 10 1010.8
20260508034351 58 0.0 0.0 0.00 0.00 0.00 10 1010.6
20260508033351 58 0.0 0.0 0.00 0.00 0.00 10 1010.5
20260508032351 59 0.0 0.0 0.00 0.00 0.00 10 1010.5
20260508031351 59 0.0 0.0 0.00 0.00 0.00 10 1010.4
20260508030351 59 0.0 0.0 0.00 0.00 0.00 10 1010.4
20260508025351 58 0.0 0.0 0.00 0.00 0.00 10 1010.6
20260508024351 58 0.0 0.0 0.00 0.00 0.00 10 1010.3
20260508023351 58 0.0 0.0 0.00 0.00 0.00 10 1010.2
20260508022351 59 0.0 0.0 0.00 0.00 0.00 10 1010.2
20260508021351 59 0.0 0.0 0.00 0.00 0.00 10 1010.1
20260508020351 60 0.0 0.0 0.00 0.00 0.00 10 1009.9
20260508015351 60 0.0 0.0 0.00 0.00 0.00 10 1009.7
20260508014351 60 0.0 0.0 0.00 0.00 0.00 10 1009.7
20260508013351 61 0.0 0.0 0.00 0.00 0.00 10 1009.5
20260508012351 61 0.0 0.0 0.00 0.00 0.00 10 1009.6
20260508011351 61 0.0 0.0 0.00 0.00 0.00 10 1010.2
20260508010351 61 0.0 0.0 0.00 0.00 0.00 10 1010.3
20260508005351 61 0.0 0.0 0.00 0.00 0.00 10 1010.5
20260508004351 62 0.0 0.0 0.00 0.00 0.00 10 1010.7
20260508003351 62 0.0 0.0 0.00 0.00 0.00 10 1010.9
20260508002351 62 0.0 0.0 0.00 0.00 0.00 10 1011.1
20260508001351 62 0.0 0.0 0.00 0.00 0.00 10 1011.1
20260508000351 62 0.0 0.0 0.00 0.00 0.00 10 1011.0
20260507235351 63 0.0 0.0 0.00 0.00 0.00 10 1010.9
20260507234351 63 0.0 0.0 0.00 0.00 0.00 10 1011.0
20260507233351 63 0.0 0.0 0.00 0.00 0.00 10 1010.8
20260507232351 63 0.0 0.0 0.00 0.00 0.00 10 1010.8
20260507231351 63 0.0 0.0 0.00 0.00 0.00 10 1010.8
20260507230351 63 0.0 0.0 0.00 0.00 0.00 10 1010.8
20260507225351 63 0.0 0.0 0.00 0.00 0.00 10 1010.8
20260507224351 64 0.0 0.0 0.00 0.00 0.00 10 1010.9
20260507223351 64 0.0 0.0 0.00 0.00 0.00 10 1011.1
20260507222351 64 0.0 0.0 0.00 0.00 0.00 10 1011.1
20260507221351 65 0.0 0.0 0.00 0.00 0.00 10 1011.1
20260507220351 65 0.0 0.0 0.00 0.00 0.00 10 1011.2
20260507215351 65 0.0 0.0 0.00 0.00 0.00 97 1011.2
20260507214351 64 0.0 0.0 0.00 0.00 0.00 10 1011.4
20260507213351 65 0.0 0.0 0.00 0.00 0.00 10 1011.2
20260507212351 65 0.0 0.0 0.00 0.00 0.00 10 1011.2
20260507211351 65 0.0 0.0 0.00 0.00 0.00 10 1011.1
20260507210351 65 0.0 0.0 0.00 0.00 0.00 10 1010.9
20260507205351 65 0.0 0.0 0.00 0.00 0.00 10 1010.8
20260507204351 66 0.0 0.0 0.00 0.00 0.00 98 1010.6
20260507203351 65 0.0 0.0 0.00 0.00 0.00 10 1010.4
20260507202351 65 0.0 0.0 0.00 0.00 0.00 10 1010.1
20260507201351 65 0.0 0.0 0.00 0.00 0.00 10 1010.0
20260507200351 66 0.0 0.0 0.00 0.00 0.00 10 1009.8
20260507195351 65 0.0 0.0 0.00 0.00 0.00 10 1009.7
20260507194351 64 0.0 0.0 0.00 0.00 0.00 10 1009.6
20260507193351 64 0.0 0.0 0.00 0.00 0.00 10 1009.4
20260507192351 64 0.0 0.0 0.00 0.00 0.00 10 1009.3
20260507191351 64 0.0 0.0 0.00 0.00 0.00 10 1009.1
20260507190351 65 0.0 0.0 0.00 0.00 0.00 10 1009.0
20260507185351 65 0.0 0.0 0.00 0.00 0.00 10 1009.0
20260507184351 66 0.0 0.0 0.00 0.00 0.00 99 1008.7
20260507183351 66 0.0 0.0 0.00 0.00 0.00 70 1008.6
20260507182351 67 0.0 0.0 0.00 0.00 0.00 87 1008.3
20260507181351 68 0.0 0.0 0.00 0.00 0.00 60 1008.2
20260507180351 67 0.0 0.0 0.00 0.00 0.00 62 1008.1
20260507175351 67 0.0 0.0 0.00 0.00 0.00 63 1008.0
20260507174351 69 0.0 0.0 0.00 0.00 0.00 59 1007.8
20260507173351 69 0.0 0.0 0.00 0.00 0.00 60 1007.8
20260507172351 69 0.0 0.0 0.00 0.00 0.00 58 1007.8
20260507171351 68 0.0 0.0 0.00 0.00 0.00 57 1007.7
20260507170351 69 0.0 0.0 0.00 0.00 0.00 56 1007.7
20260507165351 69 0.0 0.0 0.00 0.00 0.00 59 1007.4
20260507164351 70 0.0 0.0 0.00 0.00 0.00 85 1007.3
20260507163351 71 0.0 0.0 0.00 0.00 0.00 72 1006.9
20260507162351 72 0.0 0.0 0.00 0.00 0.00 70 1006.8
20260507161351 73 0.0 0.0 0.00 0.00 0.00 54 1006.7
20260507160351 76 0.0 0.0 0.00 0.00 0.00 50 1006.4
20260507155351 75 0.0 0.0 0.00 0.00 0.00 50 1006.5
20260507154351 72 0.0 0.0 0.00 0.00 0.00 59 1006.8
20260507153351 74 0.0 0.0 0.00 0.00 0.00 59 1006.7
20260507152351 71 0.0 0.0 0.00 0.00 0.00 10 1007.0
20260507151351 73 0.0 0.0 0.00 0.00 0.00 63 1007.0
20260507150351 76 0.0 0.0 0.00 0.00 0.00 61 1006.8
20260507145351 77 0.0 0.0 0.00 0.00 0.00 60 1006.8
20260507144351 77 0.0 0.0 0.00 0.00 0.00 57 1007.0
20260507143351 75 0.0 0.0 0.00 0.00 0.00 70 1007.3
20260507142351 75 0.0 0.0 0.00 0.00 0.00 10 1007.7
20260507141351 73 0.0 0.0 0.00 0.00 0.00 10 1007.8
20260507140351 72 0.0 0.0 0.00 0.00 0.00 10 1008.0
20260507135351 69 0.0 0.0 0.00 0.00 0.00 10 1008.2
20260507134351 64 0.0 0.0 0.00 0.00 0.00 10 1009.1
20260507133351 66 0.0 0.0 0.00 0.00 0.00 10 1008.8
20260507132351 68 0.0 0.0 0.00 0.00 0.00 73 1008.7
20260507131351 73 0.0 0.0 0.00 0.00 0.00 50 1007.9
20260507130351 74 0.0 0.0 0.00 0.00 0.00 45 1007.7
20260507125351 78 0.0 0.0 0.00 0.00 0.00 44 1007.2
20260507124351 78 0.0 0.0 0.00 0.00 0.00 42 1007.3
20260507123351 80 0.0 0.0 0.00 0.00 0.00 41 1007.3
20260507122351 75 0.0 0.0 0.00 0.00 0.00 45 1007.9
20260507121351 75 0.0 0.0 0.00 0.00 0.00 45 1008.0
20260507120351 80 0.0 0.0 0.00 0.00 0.00 43 1007.7
20260507115351 79 0.0 0.0 0.00 0.00 0.00 42 1007.9
20260507114351 77 0.0 0.0 0.00 0.00 0.00 44 1008.2
20260507113351 77 0.0 0.0 0.00 0.00 0.00 45 1008.3
20260507112351 77 0.0 0.0 0.00 0.00 0.00 43 1008.5
20260507111351 78 0.0 0.0 0.00 0.00 0.00 45 1008.5
20260507110351 77 0.0 0.0 0.00 0.00 0.00 43 1008.8
20260507105351 75 0.0 0.0 0.00 0.00 0.00 47 1008.9
20260507104351 76 0.0 0.0 0.00 0.00 0.00 50 1008.8
20260507103351 75 0.0 0.0 0.00 0.00 0.00 52 1009.0
20260507102351 73 0.0 0.0 0.00 0.00 0.00 56 1009.3
20260507101351 70 0.0 0.0 0.00 0.00 0.00 60 1009.6
20260507100351 70 0.0 0.0 0.00 0.00 0.00 62 1009.8
20260507095351 70 0.0 0.0 0.00 0.00 0.00 65 1009.8
20260507094351 67 0.0 0.0 0.00 0.00 0.00 71 1010.0
20260507093351 67 0.0 0.0 0.00 0.00 0.00 73 1010.1
20260507092351 67 0.0 0.0 0.00 0.00 0.00 73 1009.9